Wind_Speed
14 18 14 14 12 7 6 9 11 8 7 8 6 3 1 1 5 5 5 7 5 4 8 8 8 7 9 10 10 11 13 12 10 9 11 14 15 17 18 19 20 20 19 20 24 26 26 29 31 33 34 35 36 35 34 38 39 35 37 40 39 38 39
13 13 15 16 14 10 7 9 10 7 6 8 7 5 3 5 8 5 5 10 8 5 6 4 9 10 10 11 12 12 12 11 11 11 12 14 16 17 19 20 19 18 18 20 25 28 29 31 33 35 37 37 38 38 36 37 38 38 38 40 40 39 39
10 9 13 13 11 10 5 7 10 8 5 8 7 6 6 7 9 5 4 8 8 9 7 2 6 10 10 11 11 11 13 12 12 12 13 14 15 15 16 17 16 16 19 21 26 30 32 33 33 34 37 36 36 37 37 37 38 40 39 38 38 38 38
10 10 11 10 10 7 3 7 11 6 4 6 8 6 4 5 7 5 3 5 6 9 10 9 9 9 10 10 9 10 13 13 12 11 12 12 14 14 15 16 17 19 21 23 29 32 33 34 33 33 34 35 36 37 36 36 36 35 35 35 35 38 40
8 9 9 11 13 10 6 8 11 8 4 3 5 5 4 4 5 4 5 6 4 2 6 13 16 13 11 10 9 10 11 13 13 11 11 11 13 14 15 16 18 20 21 23 29 33 32 32 31 31 31 32 34 35 35 37 36 33 34 35 35 37 39
7 7 10 15 17 16 13 11 11 12 9 6 6 7 6 6 5 4 4 7 4 2 3 8 12 12 11 10 10 10 10 12 12 11 11 10 10 13 15 16 17 18 18 20 25 29 29 28 28 29 30 30 32 34 35 36 36 34 35 35 34 37 38
3 4 8 10 9 10 12 11 11 13 11 9 8 7 6 8 6 2 2 7 4 3 5 7 9 10 10 10 9 9 10 11 11 11 11 8 7 9 11 13 14 15 16 17 20 23 25 27 27 30 31 30 32 35 35 34 34 35 36 35 34 37 39
2 3 5 5 3 5 9 10 10 11 11 12 11 7 4 6 7 5 4 8 4 2 3 4 4 5 6 7 7 8 9 8 8 9 9 8 6 6 7 10 11 12 13 14 15 16 19 23 26 28 30 31 32 33 33 33 35 36 36 34 33 36 39
4 5 7 7 5 4 4 4 4 5 11 16 14 6 2 5 10 11 9 8 3 2 1 2 3 3 5 7 6 7 8 6 6 7 7 7 6 5 7 9 10 11 12 13 13 14 16 21 26 28 30 30 31 32 33 34 34 34 34 33 32 35 37
10 8 7 6 3 2 1 1 1 2 6 13 14 7 4 6 9 12 12 8 2 3 1 3 4 4 6 8 8 6 6 7 6 5 5 5 5 6 8 9 9 10 11 12 14 14 15 20 25 27 29 30 31 32 33 34 34 32 32 33 32 33 35
2 2 1 2 3 1 2 2 3 3 3 5 8 9 8 6 5 9 13 10 4 4 4 3 4 6 6 7 8 7 6 6 6 5 4 5 5 6 7 6 6 8 9 11 14 14 15 20 25 27 29 31 32 31 32 33 32 30 31 33 32 32 35
3 3 4 4 3 2 3 5 7 6 4 4 6 9 7 5 7 11 11 10 10 9 5 3 4 5 6 6 8 7 5 5 5 4 4 6 7 7 6 6 8 9 10 11 12 12 15 19 24 26 28 30 30 30 31 32 31 31 32 32 32 33 34
4 5 6 3 2 3 4 6 9 9 8 7 8 9 8 6 8 10 6 8 12 10 8 10 8 5 6 8 7 5 4 4 4 3 5 7 8 8 7 8 9 10 10 11 11 12 13 17 21 23 26 28 28 28 29 30 32 33 31 32 34 32 33
5 5 6 3 1 3 6 8 10 11 12 11 11 11 11 11 11 12 10 10 11 8 8 13 13 8 6 6 5 5 6 6 4 4 6 8 8 7 8 8 9 10 11 11 11 11 11 14 18 22 24 26 28 30 31 31 33 34 31 34 37 34 33
5 4 5 4 3 6 9 10 11 11 12 12 12 11 11 11 10 11 14 14 10 5 4 9 11 6 3 5 7 7 8 6 5 6 7 6 6 7 7 7 7 8 9 10 10 11 13 15 18 22 23 25 28 30 31 31 33 33 32 34 37 37 34
5 3 4 7 9 10 12 12 12 13 12 11 9 9 9 10 8 10 12 12 8 4 4 8 10 7 5 8 10 8 7 6 6 7 7 6 6 6 5 4 5 7 9 10 12 14 15 16 19 23 24 25 26 28 31 33 34 33 32 33 37 37 33
4 4 5 9 10 10 9 8 6 8 9 8 9 9 9 10 9 9 9 7 6 5 7 10 10 10 11 10 9 9 7 6 7 8 8 8 7 6 5 5 6 8 9 9 12 14 15 18 23 27 27 26 26 30 31 29 29 30 31 33 36 36 31
3 5 6 8 8 7 4 1 1 3 6 6 6 8 9 9 9 9 10 9 8 7 8 9 10 13 14 10 7 6 5 5 6 8 8 7 7 7 7 7 7 7 7 8 10 13 16 20 23 25 26 27 28 28 26 23 25 27 28 30 32 31 30
4 4 4 6 8 5 1 3 1 4 5 4 6 9 9 6 6 8 11 12 12 10 8 9 10 13 13 6 1 3 4 4 5 7 7 6 6 6 6 7 7 6 6 8 9 11 15 19 20 21 25 28 27 25 23 24 28 31 31 31 30 27 28
3 2 4 7 3 7 10 3 3 1 1 1 5 7 3 3 7 6 7 9 11 11 10 8 8 9 8 3 1 4 5 5 5 7 6 5 5 6 5 6 6 6 6 8 9 11 12 15 18 21 24 25 24 24 24 25 27 30 30 29 27 27 28
5 4 7 8 5 11 15 5 4 3 1 1 2 3 1 3 6 6 7 9 11 12 11 9 7 5 5 6 5 6 6 6 6 6 5 4 4 5 6 6 7 8 8 10 11 11 11 13 17 19 20 22 23 23 23 24 26 27 26 26 27 30 31
5 5 7 8 8 9 7 3 5 2 2 2 2 2 3 1 6 8 8 9 11 11 11 10 6 3 5 8 7 7 8 7 5 4 5 5 4 5 6 7 7 8 9 10 10 10 11 13 15 16 18 20 21 20 20 23 23 22 23 25 27 30 32
6 7 8 8 8 5 3 7 5 2 2 5 5 4 2 2 8 10 9 10 11 11 11 11 6 4 8 8 5 4 7 6 2 2 3 4 4 4 5 5 7 7 7 6 5 5 8 9 11 14 17 19 19 18 18 20 20 21 24 27 28 30 31
7 7 7 7 6 3 2 5 3 1 2 6 5 5 2 3 7 9 8 10 11 9 11 11 7 7 7 5 3 4 4 3 1 1 3 5 5 5 5 5 5 5 3 3 4 2 2 3 5 11 16 17 17 16 15 17 20 22 24 24 25 26 24
9 9 8 7 5 4 2 2 1 1 4 5 5 5 1 2 6 7 8 10 9 8 9 9 7 5 3 3 4 5 5 3 4 4 4 5 5 5 5 5 4 4 7 9 9 7 6 4 0 7 12 14 13 13 13 15 18 19 19 20 22 22 21
7 7 7 7 5 2 1 3 2 2 4 5 4 1 0 3 6 7 8 10 9 7 8 9 9 6 3 3 3 3 4 4 4 5 6 6 5 5 4 4 3 6 9 11 11 10 9 8 5 4 8 9 8 10 10 9 10 11 13 19 24 23 23
7 7 8 7 4 1 2 1 3 5 5 3 2 2 1 3 5 7 7 8 7 7 7 9 9 6 3 2 1 3 4 4 4 5 6 6 6 6 4 4 6 8 10 12 13 12 11 11 10 7 7 7 6 6 5 2 0 4 9 15 20 22 23
6 8 7 4 3 4 8 8 5 3 1 1 1 2 2 2 4 5 6 6 7 6 6 7 7 5 2 1 2 3 4 4 4 4 4 5 5 6 5 5 7 9 10 12 14 14 14 14 14 12 10 10 10 8 6 5 3 2 5 10 15 18 21
4 6 6 8 10 9 8 9 9 6 3 1 2 2 1 1 3 4 5 7 8 7 5 5 5 4 2 2 4 4 4 5 5 4 4 5 5 5 6 7 9 10 11 13 14 15 16 15 15 15 14 13 13 11 6 4 3 2 4 8 10 13 16
7 7 8 11 15 14 10 10 10 8 4 3 3 3 1 2 3 4 5 7 8 8 6 3 2 3 2 3 5 5 5 5 6 6 6 6 6 6 7 8 8 10 12 13 15 16 16 15 15 15 14 14 13 10 7 6 6 5 5 6 7 7 8
7 6 6 10 13 12 11 10 12 11 8 5 4 3 1 3 4 5 6 7 7 6 6 4 2 2 2 3 4 5 5 6 6 6 6 7 8 8 9 9 8 9 10 11 13 14 14 15 15 15 15 15 14 11 10 9 8 8 8 7 7 5 4
6 7 11 13 15 15 12 10 11 11 9 6 4 4 2 6 7 6 6 6 6 6 6 6 5 4 4 5 5 5 6 6 6 6 6 6 7 9 10 10 9 10 11 11 12 13 14 14 15 15 15 15 14 13 13 11 9 10 10 9 8 7 6
8 11 13 13 14 15 14 12 12 12 9 6 4 5 2 8 10 7 6 5 6 7 7 8 8 7 7 8 8 7 6 7 7 6 6 6 7 8 9 10 11 12 11 12 13 14 14 14 15 15 15 15 14 13 12 11 10 11 11 10 9 8 6
8 9 8 7 8 9 8 9 12 13 11 7 3 3 2 7 11 6 5 5 6 7 8 9 9 9 9 10 9 7 7 8 7 7 6 6 6 8 9 10 13 13 12 12 14 14 14 15 15 15 14 14 13 12 11 10 10 10 9 9 9 8 7
12 11 9 8 9 10 10 12 15 15 13 8 1 2 4 3 10 7 2 4 6 7 8 8 9 9 9 10 10 8 8 8 8 8 8 6 6 8 10 11 13 13 12 13 14 15 14 15 14 14 13 13 13 12 11 10 10 10 9 9 8 7 6
15 15 13 11 11 13 14 16 17 15 14 10 3 3 4 2 7 8 3 4 6 6 7 7 8 9 8 9 9 9 8 8 9 9 9 9 9 9 10 11 11 12 12 13 13 14 14 15 14 13 13 13 13 12 12 11 11 10 9 8 8 7 6
14 14 13 12 14 17 16 16 17 16 17 14 6 6 5 4 5 8 4 4 6 6 6 7 8 9 9 9 9 9 8 9 10 10 10 10 11 10 11 12 11 11 12 12 13 13 14 15 14 14 14 14 13 12 12 11 10 10 9 8 8 7 5
Wind_Direction
180 190 178 162 175 180 166 187 205 205 178 189 226 249 152 224 262 228 201 242 266 279 274 246 210 223 229 228 230 223 228 226 211 202 198 199 202 199 199 202 202 200 195 195 201 202 199 198 199 201 202 199 200 202 201 204 206 204 204 207 207 208 210
198 188 167 174 185 159 148 197 188 136 149 208 228 236 214 222 245 237 208 240 247 238 259 225 187 203 213 219 224 224 229 230 223 217 206 203 203 199 200 202 200 196 194 196 202 204 203 201 200 200 201 200 201 203 202 203 203 202 203 205 206 207 208
181 156 169 184 184 167 168 183 160 141 182 200 191 215 228 219 235 247 215 234 241 226 230 222 191 203 208 213 216 221 226 226 227 224 213 204 200 199 201 202 200 196 198 200 201 204 205 203 202 202 201 200 201 204 204 205 205 204 202 202 202 205 207
154 155 186 191 182 187 172 149 162 179 212 190 180 198 215 209 228 250 230 231 241 226 218 221 221 215 216 218 213 219 226 224 224 222 213 200 194 200 202 201 202 200 201 203 202 204 205 203 203 203 201 200 201 203 204 205 207 204 201 199 198 201 204
159 175 195 194 186 188 180 172 185 193 187 181 188 199 207 214 224 231 243 254 252 208 196 210 214 211 212 217 214 218 224 225 226 224 218 200 190 198 200 199 202 200 202 205 204 205 205 204 204 203 202 201 202 203 203 204 204 200 199 199 198 201 203
185 180 188 201 200 194 192 193 193 191 190 182 186 203 207 215 228 212 238 265 256 150 169 206 211 211 214 218 219 224 228 231 231 229 227 212 194 199 201 200 201 199 200 203 204 203 201 202 204 202 201 202 202 204 205 204 203 201 201 200 198 200 201
207 187 198 219 224 210 206 206 197 195 197 188 193 211 192 196 222 197 245 272 263 153 173 196 203 211 218 220 217 225 237 238 237 239 240 232 214 209 207 204 202 200 200 199 199 197 194 196 200 199 200 202 203 205 205 204 202 202 202 200 198 198 200
316 267 239 249 259 229 223 220 210 206 202 196 208 220 176 185 204 180 217 251 237 153 199 209 209 222 232 234 222 225 240 243 241 247 253 249 237 220 207 205 203 200 198 193 194 194 193 196 199 198 199 202 204 204 204 204 204 203 201 198 196 196 199
214 230 230 220 193 190 227 232 230 228 211 209 215 211 146 208 204 193 217 239 196 110 328 252 246 255 257 256 242 232 243 254 251 249 252 252 247 229 211 205 197 195 194 192 195 198 197 199 199 198 199 200 201 203 203 204 206 204 199 197 197 196 198
201 204 211 212 181 158 247 266 350 318 230 222 222 209 196 215 198 195 218 232 151 105 175 234 240 251 261 262 260 248 245 255 257 253 253 252 247 234 225 213 196 193 196 197 199 199 198 198 198 198 199 201 202 203 203 204 205 202 198 198 198 196 196
190 191 213 334 6 349 271 303 313 312 296 262 239 222 214 195 179 212 224 229 237 203 180 195 227 233 249 262 266 261 250 248 246 245 252 254 251 243 236 222 201 196 199 202 202 200 199 198 197 197 199 202 202 201 202 204 202 199 197 197 196 195 195
33 349 327 333 335 289 274 292 293 287 296 296 253 236 228 172 188 226 225 222 240 232 200 221 243 233 239 250 255 258 264 263 245 231 233 242 247 244 231 218 210 205 206 206 204 203 200 198 198 197 199 201 200 199 201 200 198 198 195 192 192 192 193
347 322 311 314 293 276 269 270 279 283 278 270 256 253 255 221 225 252 242 218 233 233 222 236 242 238 243 247 253 268 288 286 260 224 221 232 239 236 225 218 212 209 212 209 205 205 202 200 199 198 200 202 199 199 199 196 197 199 193 189 191 192 193
320 311 309 315 285 283 285 273 267 268 267 263 255 254 260 257 261 279 282 262 250 237 230 240 239 235 243 257 276 285 279 275 262 234 232 235 238 237 230 225 216 212 215 211 206 205 202 201 200 200 201 202 201 202 201 197 198 198 194 193 196 198 200
303 310 312 306 302 298 290 278 263 256 256 254 248 243 250 257 263 270 273 274 268 247 248 260 257 258 277 269 265 263 261 260 250 242 243 242 243 243 238 236 233 226 221 215 207 206 206 204 202 202 202 201 202 205 203 201 200 198 196 196 198 202 203
285 311 325 316 318 309 285 267 255 249 245 247 248 238 229 233 244 254 257 264 266 238 221 250 260 265 261 251 251 252 249 242 234 238 246 247 247 250 245 236 236 233 230 221 211 211 213 208 204 204 203 200 201 204 204 203 200 197 196 196 199 203 203
284 307 321 325 322 302 272 254 245 246 249 258 261 253 242 234 236 247 252 258 268 243 219 230 244 249 246 240 239 245 243 230 224 231 240 243 250 258 256 244 235 233 235 229 219 217 214 208 206 205 202 199 200 204 205 201 197 196 196 197 200 202 200
282 304 321 318 294 265 245 149 123 263 266 267 272 278 275 258 243 250 259 261 264 251 229 226 232 241 246 243 234 243 248 233 228 233 237 242 251 258 258 255 248 239 237 237 233 226 221 217 214 207 202 202 202 202 199 194 194 199 200 201 203 202 198
268 302 309 274 251 249 300 83 100 271 252 240 283 287 277 275 277 270 262 257 256 252 238 228 230 240 251 257 220 236 250 243 237 242 241 236 243 251 255 259 260 252 246 247 244 238 231 224 215 205 203 205 202 199 195 191 195 201 203 205 206 203 200
243 244 235 236 257 327 312 296 105 45 182 171 292 280 256 3 356 320 285 277 274 270 262 249 245 254 268 288 196 207 230 237 236 246 250 239 243 257 266 273 275 273 268 265 259 252 242 225 211 206 206 203 199 199 198 193 194 198 200 201 202 200 199
218 218 236 250 300 308 289 267 108 89 126 89 330 283 254 19 10 346 318 308 301 298 295 288 281 277 278 270 232 200 207 229 237 249 265 270 269 276 283 286 285 282 278 273 267 260 246 225 212 207 204 198 195 196 196 193 193 193 195 197 198 198 199
215 227 244 253 262 266 254 171 124 143 209 175 177 231 232 55 24 358 333 315 311 312 312 310 308 265 246 257 243 194 187 208 234 254 271 284 287 292 300 300 298 295 284 275 269 258 242 227 213 202 195 190 188 189 190 191 190 189 193 198 198 199 201
223 223 233 236 246 255 152 137 153 223 209 173 184 240 248 50 11 349 333 322 318 314 313 315 308 234 229 245 249 180 162 168 193 248 283 302 307 312 324 325 320 314 296 277 273 254 238 230 211 196 190 185 185 188 189 188 187 190 197 201 201 202 202
227 229 243 241 247 285 91 136 169 273 167 163 201 259 262 46 356 338 328 322 318 315 314 308 276 238 236 249 314 35 86 108 86 344 318 321 325 338 355 352 337 338 2 54 62 45 297 274 220 195 188 185 187 189 184 186 194 199 202 203 202 202 201
228 229 243 249 255 281 270 182 167 149 164 190 243 260 220 7 333 332 323 312 313 318 313 294 264 258 297 311 330 15 46 41 18 358 332 329 332 341 359 3 1 39 59 65 66 52 25 8 309 187 184 183 185 184 181 190 201 204 204 205 205 205 203
228 226 240 259 272 282 216 182 153 168 208 235 262 268 303 308 321 339 325 309 313 320 307 288 276 286 326 318 312 22 49 42 19 351 337 340 338 338 5 26 58 83 74 68 66 52 37 38 58 144 175 175 175 178 180 193 207 206 204 205 207 206 204
224 224 230 241 251 348 16 271 201 200 225 261 331 347 315 312 329 335 320 309 316 317 307 298 288 285 299 304 325 38 43 43 31 357 342 340 337 343 8 43 74 86 81 72 66 55 45 45 51 83 135 138 132 145 136 77 274 215 208 207 207 206 203
224 218 217 230 276 332 335 316 286 258 277 26 25 303 303 3 354 338 323 314 315 312 307 306 298 288 296 339 24 49 53 51 41 21 9 355 345 349 360 26 60 77 81 76 70 62 56 52 52 63 85 94 90 86 65 41 42 188 205 207 207 206 207
259 251 268 300 302 300 305 305 303 308 312 228 201 240 282 26 14 353 327 311 314 317 312 309 310 312 342 52 45 44 58 59 52 51 45 27 15 14 19 30 50 66 76 78 75 69 62 59 58 60 69 79 79 71 56 48 65 119 185 199 202 205 207
302 288 268 268 274 284 297 299 296 295 288 256 232 227 184 62 34 3 329 313 318 322 315 312 326 320 338 67 68 59 59 60 60 62 60 53 45 37 37 40 46 61 73 77 76 73 68 65 66 64 66 72 74 69 62 62 69 90 138 166 178 191 201
300 292 264 259 272 293 312 307 294 287 277 264 254 242 139 79 56 20 346 329 330 332 328 331 344 338 1 53 73 69 59 54 54 52 53 57 56 50 51 51 50 62 72 73 74 74 70 67 69 69 68 70 72 72 71 71 77 83 92 107 120 124 136
267 273 281 286 288 293 298 294 288 284 273 259 256 249 151 91 69 37 8 353 357 7 356 344 352 18 26 30 42 54 53 47 42 38 38 45 53 57 60 59 61 66 69 70 75 77 74 72 74 73 72 72 72 72 73 76 84 85 81 84 92 90 91
278 274 277 284 283 280 277 271 267 268 260 244 244 252 163 90 72 40 15 15 21 26 19 7 10 20 18 13 16 29 42 40 32 30 31 34 47 59 61 61 64 66 66 70 76 79 78 80 81 79 77 75 71 69 70 74 84 91 93 95 96 95 95
270 261 268 287 285 279 281 280 278 275 264 241 225 284 309 89 86 57 3 12 28 36 38 27 22 23 16 5 2 13 35 37 26 25 31 37 49 59 60 63 66 66 65 70 75 79 81 83 83 82 79 76 73 68 64 64 70 80 88 91 90 89 88
265 269 282 295 291 287 291 292 291 289 278 258 166 9 309 90 101 94 31 23 25 25 38 40 33 30 20 4 358 7 26 34 26 22 27 33 45 57 62 65 65 64 64 66 71 76 81 83 84 82 77 73 72 68 64 65 68 72 78 81 79 75 71
270 278 282 280 275 275 278 281 286 292 288 273 191 139 267 254 110 107 97 67 44 21 24 36 37 33 22 7 3 8 18 30 30 20 16 16 23 42 57 62 62 62 61 60 61 65 71 75 76 75 71 68 66 66 65 69 74 76 80 85 84 78 68
262 270 274 271 267 267 271 277 281 282 281 274 233 162 217 240 111 97 80 67 65 44 28 27 31 36 31 16 9 11 16 26 29 25 20 17 18 30 45 51 55 55 51 47 44 45 51 57 60 62 61 58 56 58 59 60 64 69 73 78 80 76 68
Height
696 700 702 703 715 729 732 733 738 733 724 733 752 759 752 756 767 756 743 737 722 713 705 690 691 696 692 692 690 688 689 686 689 693 692 692 693 693 695 696 697 700 703 707 710 714 717 719 723 727 730 733 736 740 744 748 753 757 760 764 767 770 773
698 690 697 703 702 709 727 735 727 720 727 732 743 760 762 764 770 753 737 737 730 728 719 696 691 697 694 692 690 688 687 686 688 688 687 687 686 687 689 688 691 694 698 701 704 708 711 713 716 718 721 725 730 735 739 743 747 749 753 757 761 765 768
698 690 700 712 705 700 711 716 710 718 740 745 744 758 763 764 767 753 741 738 728 723 715 700 698 698 692 689 689 688 686 684 684 682 682 682 682 684 685 686 689 691 692 694 696 700 704 707 710 712 715 721 726 730 734 738 741 743 747 752 756 760 763
696 697 704 715 714 708 706 708 708 713 725 732 737 742 743 751 759 753 747 741 724 707 698 695 697 693 688 688 687 687 684 679 677 675 674 676 679 680 680 681 683 683 685 687 689 694 697 701 704 707 711 717 721 725 729 733 737 740 745 748 751 754 757
700 704 702 703 706 709 711 714 717 716 717 720 727 731 728 735 748 751 751 743 716 692 683 684 685 682 682 681 680 680 678 673 670 669 668 669 672 673 673 675 676 677 679 681 684 689 693 697 701 704 709 713 716 720 723 726 731 735 739 743 746 748 752
703 700 692 687 689 694 700 706 708 711 714 719 733 740 728 722 732 737 742 739 711 684 678 678 675 675 674 673 674 674 672 669 667 664 663 663 665 667 667 668 670 672 675 677 680 685 690 694 697 701 705 708 712 715 717 720 725 729 733 737 740 743 747
699 693 686 682 684 684 688 694 696 698 703 711 727 738 728 723 726 722 729 736 709 679 674 674 671 670 668 667 670 671 668 666 664 662 660 660 663 663 664 665 667 669 671 673 677 682 685 689 691 695 700 703 706 708 711 716 719 722 726 731 735 738 741
696 688 685 684 684 688 692 692 690 692 697 699 706 713 715 721 725 724 733 737 710 679 672 672 669 669 668 666 667 668 667 663 662 662 661 661 662 663 664 665 665 667 669 671 675 678 680 683 687 691 694 696 700 703 707 711 713 716 720 725 729 732 735
717 707 699 694 690 693 700 700 696 694 694 694 697 704 714 720 717 717 728 728 703 680 676 676 673 673 672 668 666 666 666 664 662 662 662 661 662 663 664 664 664 666 667 668 671 673 675 678 682 685 688 691 694 698 701 704 707 712 716 721 724 726 730
723 722 716 709 705 706 707 707 706 703 699 699 699 706 721 725 714 708 713 712 696 682 679 679 676 677 675 669 665 664 665 665 663 663 663 662 662 662 662 662 663 664 664 665 667 668 670 673 676 679 682 685 688 692 695 698 702 708 712 715 718 721 725
719 724 724 719 718 719 716 712 711 709 707 705 701 705 714 716 715 710 700 696 695 687 681 679 676 676 676 670 665 664 663 663 663 663 663 662 661 660 660 661 662 663 663 663 664 664 666 668 670 673 676 679 683 686 689 693 698 703 707 710 713 716 719
724 726 724 720 722 724 722 719 715 711 711 711 709 709 704 700 710 711 694 690 698 691 681 679 675 674 674 669 664 662 661 660 661 661 662 662 660 658 658 660 661 661 661 660 661 661 662 664 666 669 672 675 677 680 683 688 693 697 700 704 707 710 713
724 722 719 719 722 723 722 721 718 713 713 714 713 711 704 698 705 704 691 690 695 688 681 678 673 670 670 666 662 661 660 659 658 660 662 660 658 656 656 657 657 658 658 658 658 658 659 661 664 666 668 670 673 676 679 683 687 690 694 697 700 704 707
724 720 718 718 721 723 720 718 716 712 710 710 710 708 703 701 702 698 691 692 691 683 677 673 666 663 663 662 662 662 659 657 657 659 660 657 655 654 653 653 653 654 653 653 654 656 657 658 659 661 664 666 668 671 674 677 680 684 688 690 694 698 701
725 719 717 717 719 721 720 715 709 707 707 705 705 704 701 702 704 698 693 696 691 679 674 670 665 663 664 664 663 660 657 656 657 658 656 653 652 651 650 651 651 651 651 651 652 653 653 652 653 656 658 660 664 667 669 672 675 678 682 684 688 692 694
727 719 719 719 715 713 713 708 703 700 700 699 697 695 695 697 700 697 696 697 689 676 671 671 668 666 668 666 662 658 656 656 658 657 654 650 649 648 649 650 650 649 649 649 649 648 647 647 650 651 652 656 660 662 664 665 668 673 677 679 682 685 688
729 720 720 718 715 717 711 699 694 693 692 691 689 686 685 685 688 692 693 688 677 667 667 669 668 666 665 663 659 656 654 654 655 654 651 648 646 645 646 648 647 646 644 643 643 642 642 642 643 644 647 651 653 655 658 661 665 670 672 674 677 680 684
732 723 718 719 722 721 707 691 689 690 690 691 693 691 687 682 679 680 679 673 667 665 666 667 667 662 656 653 652 650 649 651 652 650 648 646 645 644 644 644 642 641 640 639 638 637 637 638 639 641 645 646 647 651 656 660 665 668 670 672 675 678 682
731 722 722 730 727 711 694 687 687 686 686 691 695 692 686 682 680 677 674 670 665 663 662 661 660 655 649 648 650 650 649 650 649 648 646 645 644 644 643 641 639 638 637 637 635 634 634 635 637 639 640 641 644 649 653 656 660 663 667 670 674 678 681
730 728 730 729 716 696 685 685 686 685 688 692 695 690 683 681 685 684 680 674 667 662 660 657 655 653 650 650 652 650 649 648 648 647 644 643 643 642 640 639 637 636 634 633 632 632 632 633 634 634 635 638 643 646 649 652 655 658 662 666 670 674 677
727 729 724 714 707 700 691 686 687 689 691 693 696 696 689 684 686 687 685 681 674 668 664 659 657 656 656 656 652 647 646 646 645 644 642 641 641 639 637 636 635 634 633 631 630 630 630 630 630 630 633 637 640 643 646 649 652 655 659 661 664 667 670
723 725 722 715 716 710 694 686 687 687 687 689 693 697 693 687 687 687 686 684 679 673 669 664 661 661 664 662 651 642 643 644 643 643 642 640 640 638 636 635 633 632 631 629 628 628 628 627 628 629 632 634 637 640 642 645 648 652 655 657 659 661 663
725 726 724 717 713 702 688 684 685 684 684 685 689 694 692 687 687 686 684 684 681 677 674 669 666 666 666 660 647 638 640 643 643 644 643 641 640 638 636 635 633 631 630 628 627 627 627 627 627 628 630 632 635 637 640 643 646 648 650 652 654 656 659
730 729 723 711 703 694 685 684 684 681 680 683 693 699 692 687 688 685 683 684 681 678 676 672 669 666 661 655 648 643 643 644 644 645 645 643 642 639 636 635 633 631 629 627 627 627 628 628 628 628 630 632 634 636 639 641 643 644 646 648 651 654 658
732 732 726 713 701 689 683 683 681 679 681 688 697 696 687 684 685 682 681 682 679 677 678 673 667 662 658 656 653 648 647 648 648 647 646 645 643 641 638 636 635 632 630 628 628 629 629 628 628 629 630 631 633 636 638 640 641 643 646 648 651 655 658
731 729 725 719 707 688 679 681 680 678 686 691 688 682 679 680 680 678 678 678 675 676 676 671 665 660 658 657 654 651 650 650 650 650 648 647 646 643 640 638 636 633 631 630 630 630 630 629 629 629 630 632 634 637 639 641 642 644 645 647 649 653 655
728 730 729 728 716 693 681 684 684 680 684 684 677 675 677 677 675 676 677 675 673 675 674 670 665 662 660 659 656 655 653 651 651 651 650 649 648 645 643 641 636 634 632 632 632 632 631 630 630 630 631 633 635 637 639 641 643 644 645 646 648 651 653
723 726 721 715 706 693 689 692 690 682 678 676 675 677 676 674 674 676 676 675 673 673 672 670 667 664 663 661 658 657 655 653 652 652 650 649 649 647 645 642 638 635 633 632 633 633 633 633 632 632 633 634 636 639 641 642 643 643 645 646 648 650 651
725 721 713 705 698 693 693 694 691 685 680 676 676 676 675 674 674 674 676 676 673 671 670 669 668 666 664 662 659 658 657 655 653 652 651 650 649 647 646 644 640 638 635 634 634 634 635 635 635 635 635 636 638 640 642 642 642 643 644 645 647 649 650
724 717 711 705 699 693 691 691 688 686 683 679 677 675 674 673 672 673 675 675 672 671 669 667 668 668 665 661 660 659 658 657 655 653 652 650 648 647 646 645 643 640 638 636 636 636 637 638 638 638 638 639 640 641 642 642 642 642 643 644 646 647 649
730 721 709 702 699 696 696 696 692 688 685 681 678 676 673 670 670 672 673 673 671 670 669 667 667 667 664 662 660 659 659 658 656 655 653 651 649 647 646 646 645 643 640 639 638 638 639 639 639 640 640 640 642 643 643 643 643 643 643 644 645 647 648
729 722 710 704 702 699 697 699 696 690 687 683 679 677 672 667 667 670 672 672 670 669 669 669 666 665 665 663 661 658 658 658 658 656 655 652 650 649 647 647 647 645 644 642 641 640 641 641 641 641 641 642 643 643 643 643 643 643 644 645 646 647 648
727 721 712 707 704 697 692 692 691 688 685 682 679 677 670 663 664 671 672 671 669 668 668 668 666 664 664 662 660 659 658 658 658 658 656 654 652 650 649 649 649 649 648 647 644 643 644 644 643 643 643 644 644 644 644 644 643 644 645 645 646 647 648
727 717 710 707 705 699 692 690 688 686 685 681 677 676 672 663 663 671 674 672 668 667 667 667 666 666 664 663 662 661 658 657 658 658 657 656 654 651 651 650 651 652 652 651 648 647 646 646 646 645 645 645 645 645 644 644 644 645 645 646 647 648 648
715 707 707 709 708 704 697 693 690 687 685 680 674 674 674 667 662 668 674 672 669 668 666 665 666 666 665 664 664 662 660 658 658 658 658 658 655 653 652 651 652 654 654 653 651 649 649 649 648 648 647 647 646 646 646 646 646 646 646 647 647 648 649
710 707 708 709 708 704 698 694 690 686 684 681 674 671 674 670 663 666 671 671 669 669 668 666 665 665 665 665 665 664 663 660 658 658 659 659 657 655 653 652 653 654 655 654 653 651 651 651 650 649 649 648 648 648 648 648 648 647 647 647 648 649 650
709 707 706 705 704 699 694 692 690 685 684 682 674 669 672 671 663 663 668 669 667 668 669 668 666 664 664 664 665 665 664 662 660 659 660 660 659 657 654 653 653 654 654 655 654 653 652 652 651 650 649 649 649 649 649 649 648 648 647 647 648 649 650